Location: Zaragoza
(41.6330°N, 0.8830°W)
Time: 03:28:14
(UTC+01:00)

ISS - Visible Passes

Search period start: 16 January 2021 00:00
Search period end: 26 January 2021 00:00
Orbit: 418 x 419 km, 51.6° (Epoch: 16 January)

Date Brightness Start Highest point End Pass type
(mag) Time Alt. Az. Time Alt. Az. Time Alt. Az.
16 Jan -1.1 20:13:03 10° SSW 20:13:41 14° SSW 20:13:41 14° SSW visible
17 Jan -2.0 19:26:01 10° S 19:28:21 19° SE 19:28:21 19° SE visible
18 Jan -1.4 18:39:45 10° SSE 18:40:57 11° SE 18:42:09 10° ESE visible
18 Jan -2.1 20:13:54 10° SW 20:15:55 34° WSW 20:15:55 34° WSW visible
19 Jan -3.6 19:26:14 10° SW 19:29:32 56° SE 19:30:25 40° E visible
20 Jan -2.7 18:38:48 10° SSW 18:41:50 32° SE 18:44:49 10° ENE visible
20 Jan -2.0 20:15:28 10° W 20:17:47 30° WNW 20:17:47 30° WNW visible
21 Jan -3.2 19:27:26 10° WSW 19:30:43 52° NNW 19:32:07 29° NNE visible
22 Jan -3.7 18:39:33 10° SW 18:42:54 86° NW 18:46:16 10° NE visible
22 Jan -1.4 20:17:27 10° WNW 20:19:21 19° NW 20:19:21 19° NW visible
23 Jan -2.1 19:29:12 10° W 19:32:05 26° NNW 19:33:34 19° NNE visible
24 Jan -2.6 18:41:00 10° W 18:44:08 35° NNW 18:47:17 10° NE visible
24 Jan -1.1 20:19:31 10° NW 20:20:40 14° NNW 20:20:40 14° NNW visible
25 Jan -1.6 19:31:13 10° WNW 19:33:34 17° NNW 19:34:49 15° NNE visible
